This is the latest recevied weather packets stored in our database for station/object KI4LFI. If no packets are shown the sender has not sent any weather packets the latest 10 day(s).
| Time | Temp. | Humidity | Pressure | Rain* | Wind** | Luminosity | Snow |
|---|---|---|---|---|---|---|---|
| 1778089542 | 28.89° C | 70% | 1015.6 hPa | 0 mm | - | - | - |
| 1778080543 | 26.11° C | 78% | 1016.7 hPa | 0 mm | - | - | - |
| 1778079643 | 26.11° C | 80% | 1016.7 hPa | 0 mm | - | - | - |
| 1778076937 | 23.89° C | 89% | 1016.4 hPa | 0 mm | - | - | - |
| 1778074238 | 22.22° C | 96% | 1015.6 hPa | 0 mm | - | - | - |
| 1778067937 | 18.89° C | 100% | 1014.5 hPa | 0 mm | - | - | - |
| 1778066144 | 18.33° C | 100% | 1013.8 hPa | 0 mm | - | - | - |
| 1778063437 | 17.78° C | 100% | 1012.9 hPa | 0 mm | - | - | - |
| 1778062544 | 17.78° C | 100% | 1012.9 hPa | 0 mm | - | - | - |
| 1778058040 | 17.78° C | 100% | 1012.9 hPa | 0 mm | - | - | - |
| 1778056241 | 18.33° C | 100% | 1013.1 hPa | 0 mm | - | - | - |
| 1778053537 | 18.33° C | 100% | 1013.3 hPa | 0 mm | - | - | - |
| 1778041835 | 18.89° C | 95% | 1014.6 hPa | 0 mm | - | - | - |
| 1778039144 | 18.89° C | 92% | 1015.2 hPa | 0 mm | - | - | - |
| 1778033739 | 20.56° C | 87% | 1014.5 hPa | 0 mm | - | - | - |
| 1778032867 | 20.56° C | 86% | 1014.4 hPa | 0 mm | - | - | - |
| 1778031944 | 20.56° C | 84% | 1014.4 hPa | 0 mm | - | - | - |
| 1778025654 | 23.89° C | 72% | 1014 hPa | 0 mm | - | - | - |
| 1778024741 | 23.89° C | 72% | 1013.8 hPa | 0 mm | - | - | - |
| 1778023849 | 24.44° C | 70% | 1013.7 hPa | 0 mm | - | - | - |
| 1778020239 | 26.67° C | 64% | 1013.6 hPa | 0 mm | - | - | - |
| 1778013955 | 27.78° C | 63% | 1013.4 hPa | 0 mm | - | - | - |
| 1778013040 | 27.78° C | 61% | 1013.6 hPa | 0 mm | - | - | - |
| 1778003140 | 26.67° C | 64% | 1015.8 hPa | 0 mm | - | - | - |
| 1777999542 | 24.44° C | 68% | 1015.8 hPa | 0 mm | - | - | - |
* Rain latest hour (hover to see other rain measurements)
** Current wind speed in m/s (hover to see current wind gust speed)